User: anonymous   Login
Location: Unspecified
(0.0000°N, 0.0000°E)
Time: 09:20:37
(UTC+00:00)
Language:

CICERO 6 - Orbit

View from above orbital plane
View from above orbital plane
View from above satellite
View from above satellite

Ground track
Ground track

The orbit data is extracted from the following two-line orbital elements,

1 42793U 17036AE  19345.69246226 +.00000682 +00000-0 +32078-4 0  9991
2 42793 097.3280 039.6601 0009573 342.4289 017.6616 15.22833076137136
Epoch (UTC): 11 December 2019 16:37:08
Eccentricity: 0.0009573
inclination: 97.3280°
perigee height: 491 km
apogee height: 504 km
right ascension of ascending node: 39.6601°
argument of perigee: 342.4289°
revolutions per day: 15.22833076
mean anomaly at epoch: 17.6616°
orbit number at epoch: 13713

The dashed part of the orbit path shows where the satellite is in the earth's shadow,  

DLR